OBJECT F, 60750

Orbit data source: Space-Track

You're viewing an Uncataloged Satellite

Recently launched and/or uncataloged satellites may have evolving metadata. Metadata may include but not limited to: Owner, Maufacturer, Bus, Motor, and Mission.

OBJECT F, 60750 is a satellite owned by Xiamen Tianwei (CN) in SSO that was launched on Thu, 29 Aug 2024 UTC via a GUSHENXING 1 launch vehicle from the Yellow Sea Launch Area, China (YSLA). Unknown objects in Earth's orbit typically refer to objects detected orbiting the Earth but have not yet been identified or cataloged. These objects could be anything from previously untracked satellites, spent rocket stages, debris from satellite collisions, or even natural meteoroids temporarily captured by Earth's gravity.

Loading next visibility...
Identifier
60750, 2024-153F
Orbit
SSO
Last TLE update
8 hours ago
Origin
Flag of CNXIAMT (CN / PRC)
Manufacturer
Hangsheng
Mission
Operational Commercial Imaging
Bus & Motor
TFG, Unknown motor
Mass
~50 kg wet, ~50 kg dry
Launch date (UTC)
2024-08-29 (10 months ago)
Launch vehicle
GUSHENXING 1
Launch site
Yellow Sea Launch Area, China (YSLA)
Object type
Unknown
Shape & HBR
Box + 1 Pan, 5 m
Radar Cross Section
5.339 m², Medium (>0.1 m² and < 1m²)

Expand to show TLE details & history

TLE from 8 hours ago
0 OBJECT F
1 60750U 24153F   25182.89128905  .00012024  00000-0  48397-3 0  9996
2 60750  97.6354 308.6609 0012984 316.2337  43.7870 15.24963172 46532
Epoch: 2025-07-01T21:23Z
TLE epoch observation values (Epoch: 2025-07-01T21:23:27.373Z)
Latitude
-0.00006°
Longitude
67.61661°
Altitude
487.552 km
Speed
7.625 km/s
True Right ascension
20h 34m 38s
True Declination
0° 00' 00"
Sunlit
Object was in full shadow at epoch
Visualization orbit readout
Latitude
7.52234°
Longitude
66.9438°
Altitude
487.872 km
Speed
7.625 km/s
Apparent Right ascension
23h 33m 26s
Apparent Declination
-29° 59' 12"
Sunlit
Object is in full shadow
Visualization observer readout
Local Sidereal Time
16:59:25
Azimuth
109.368° ESE
Elevation
-24.77°
Doppler factor
1
Orbital elements
Apogee altitude
496.78 km
Perigee altitude
478.95 km
Semi-major axis
6,866.002 km
Eccentricity
0.0013
Inclination
97.6354°
RAAN
308.6609°
Arg. of periapsis
316.2337°
True anomaly
Unknown
Mean anomaly
43.787°
Eccentric anomaly
Unknown
Mean motion
3.81494 °/min
Orbital period
94.37 mins
BSTAR
0.00048397
Loading maneuver chart data...
Loading SW <> Apogee altitude chart data...
Loading historical data...
Loading historical data...
Loading historical data...
Loading historical data...
Loading historical data...
Loading historical data...
Loading historical data...

OBJECT F Visibility forecast

Observer location: undefined°, undefined°

Span
Click to sort rows by Start time (UTC) header in descending order
Start Az.
Max El. time (UTC)
Max El. Az.
Max El.
End time (UTC)
End Az.
7 mins2025-07-02 08:31:52.454Z172.99° S2025-07-02 08:34:52.454Z202.46° SSW41.269°2025-07-02 08:38:52.454Z343.71° N
5 mins2025-07-02 21:34:52.454Z355.756° N2025-07-02 21:36:52.454Z308.123° NW37.282°2025-07-02 21:39:52.454Z213.122° SW
|